| time (UTC) | temp F | wind direction | speed MPH | gust MPH | rain 1hr in | rain 24hr in | rain mn in | humidity % | barometer mb |
| 20260509024914 | 49 | 321 | 0.0 | 0.0 | 0.00 | 0.00 | 0.00 | 87 | 1017.5 |
| 20260509023414 | 50 | 321 | 0.0 | 3.0 | 0.00 | 0.00 | 0.00 | 85 | 1017.5 |
| 20260509021914 | 50 | 171 | 0.0 | 0.0 | 0.00 | 0.00 | 0.00 | 86 | 1017.6 |
| 20260509020413 | 49 | 171 | 0.0 | 0.0 | 0.00 | 0.00 | 0.00 | 87 | 1017.7 |
| 20260509014913 | 50 | 171 | 0.0 | 2.0 | 0.00 | 0.00 | 0.00 | 85 | 1017.8 |
| 20260509013413 | 51 | 171 | 0.0 | 0.0 | 0.00 | 0.00 | 0.00 | 84 | 1017.7 |
| 20260509010413 | 52 | 171 | 0.0 | 4.0 | 0.00 | 0.00 | 0.00 | 83 | 1017.6 |
| 20260509004913 | 52 | 183 | 2.0 | 3.0 | 0.00 | 0.00 | 0.00 | 83 | 1017.6 |
| 20260509003413 | 51 | 209 | 1.0 | 2.0 | 0.00 | 0.00 | 0.00 | 83 | 1017.8 |
| 20260509001913 | 52 | 209 | 1.0 | 2.0 | 0.00 | 0.00 | 0.00 | 80 | 1017.9 |
| 20260509000412 | 54 | 175 | 0.0 | 0.0 | 0.00 | 0.00 | 0.00 | 79 | 1018.0 |
| 20260508234912 | 53 | 175 | 0.0 | 0.0 | 0.00 | 0.00 | 0.00 | 80 | 1018.1 |
| 20260508233412 | 54 | 175 | 0.0 | 0.0 | 0.00 | 0.00 | 0.00 | 79 | 1018.0 |
| 20260508231912 | 54 | 175 | 0.0 | 0.0 | 0.00 | 0.00 | 0.00 | 78 | 1018.0 |
| 20260508230412 | 54 | 175 | 0.0 | 0.0 | 0.00 | 0.00 | 0.00 | 78 | 1017.9 |
| 20260508224912 | 54 | 176 | 0.0 | 0.0 | 0.00 | 0.00 | 0.00 | 77 | 1017.9 |
| 20260508223412 | 54 | 176 | 0.0 | 0.0 | 0.00 | 0.00 | 0.00 | 78 | 1017.9 |
| 20260508221911 | 54 | 176 | 0.0 | 0.0 | 0.00 | 0.00 | 0.00 | 76 | 1017.8 |
| 20260508220411 | 55 | 176 | 0.0 | 0.0 | 0.00 | 0.00 | 0.00 | 75 | 1017.8 |
| 20260508214911 | 56 | 175 | 0.0 | 0.0 | 0.00 | 0.00 | 0.00 | 74 | 1017.9 |
| 20260508213411 | 56 | 175 | 0.0 | 2.0 | 0.00 | 0.00 | 0.00 | 72 | 1017.9 |
| 20260508211911 | 56 | 178 | 0.0 | 0.0 | 0.00 | 0.00 | 0.00 | 73 | 1017.9 |
| 20260508204912 | 57 | 178 | 2.0 | 3.0 | 0.00 | 0.00 | 0.00 | 71 | 1017.8 |
| 20260508203412 | 58 | 167 | 0.0 | 0.0 | 0.00 | 0.00 | 0.00 | 70 | 1017.8 |
| 20260508200411 | 58 | 147 | 0.0 | 0.0 | 0.00 | 0.00 | 0.00 | 69 | 1017.6 |
| 20260508194911 | 59 | 147 | 0.0 | 1.0 | 0.00 | 0.00 | 0.00 | 68 | 1017.4 |
| 20260508193411 | 60 | 147 | 0.0 | 0.0 | 0.00 | 0.00 | 0.00 | 66 | 1017.2 |
| 20260508191911 | 62 | 147 | 2.0 | 4.0 | 0.00 | 0.00 | 0.00 | 61 | 1017.0 |
| 20260508181911 | 65 | 184 | 1.0 | 3.0 | 0.00 | 0.00 | 0.00 | 59 | 1016.3 |
| 20260508180411 | 65 | 183 | 1.0 | 2.0 | 0.00 | 0.00 | 0.00 | 58 | 1016.1 |
| 20260508174911 | 66 | 183 | 1.0 | 3.0 | 0.00 | 0.00 | 0.00 | 56 | 1015.6 |
| 20260508173411 | 67 | 98 | 0.0 | 5.0 | 0.00 | 0.00 | 0.00 | 55 | 1015.5 |
| 20260508171911 | 68 | 71 | 1.0 | 3.0 | 0.00 | 0.00 | 0.00 | 53 | 1015.2 |
| 20260508170411 | 68 | 9 | 3.0 | 6.0 | 0.00 | 0.00 | 0.00 | 52 | 1015.2 |
| 20260508164911 | 69 | 61 | 1.0 | 3.0 | 0.00 | 0.00 | 0.00 | 51 | 1015.2 |
| 20260508163411 | 71 | 56 | 1.0 | 3.0 | 0.00 | 0.00 | 0.00 | 49 | 1015.2 |
| 20260508161911 | 71 | 140 | 0.0 | 6.0 | 0.00 | 0.00 | 0.00 | 48 | 1015.1 |
| 20260508160411 | 72 | 90 | 1.0 | 4.0 | 0.00 | 0.00 | 0.00 | 48 | 1015.0 |
| 20260508154911 | 72 | 111 | 2.0 | 3.0 | 0.00 | 0.00 | 0.00 | 46 | 1014.9 |
| 20260508153411 | 73 | 115 | 3.0 | 6.0 | 0.00 | 0.00 | 0.00 | 44 | 1015.1 |
| 20260508151911 | 73 | 51 | 2.0 | 7.0 | 0.00 | 0.00 | 0.00 | 43 | 1015.2 |
| 20260508150410 | 74 | 69 | 3.0 | 5.0 | 0.00 | 0.00 | 0.00 | 43 | 1015.2 |
| 20260508144911 | 72 | 47 | 1.0 | 4.0 | 0.00 | 0.00 | 0.00 | 45 | 1015.6 |
| 20260508143411 | 72 | 38 | 1.0 | 4.0 | 0.00 | 0.00 | 0.00 | 46 | 1015.7 |
| 20260508141911 | 73 | 108 | 3.0 | 8.0 | 0.00 | 0.00 | 0.00 | 45 | 1015.7 |
| 20260508140411 | 74 | 69 | 2.0 | 5.0 | 0.00 | 0.00 | 0.00 | 46 | 1015.9 |
| 20260508134911 | 73 | 31 | 1.0 | 5.0 | 0.00 | 0.00 | 0.00 | 47 | 1015.9 |
| 20260508131910 | 72 | 94 | 3.0 | 7.0 | 0.00 | 0.00 | 0.00 | 48 | 1016.3 |
| 20260508123410 | 71 | 42 | 2.0 | 7.0 | 0.00 | 0.00 | 0.00 | 50 | 1016.8 |
| 20260508121910 | 71 | 304 | 1.0 | 4.0 | 0.00 | 0.00 | 0.00 | 49 | 1017.0 |
| 20260508120410 | 72 | 265 | 1.0 | 3.0 | 0.00 | 0.00 | 0.00 | 49 | 1017.1 |
| 20260508114912 | 69 | 72 | 4.0 | 7.0 | 0.00 | 0.00 | 0.00 | 54 | 1017.1 |
| 20260508110412 | 66 | 34 | 3.0 | 6.0 | 0.00 | 0.00 | 0.00 | 55 | 1017.2 |
| 20260508104912 | 67 | 65 | 1.0 | 6.0 | 0.00 | 0.00 | 0.00 | 55 | 1017.3 |
| 20260508103412 | 65 | 57 | 4.0 | 9.0 | 0.00 | 0.00 | 0.00 | 57 | 1017.4 |
| 20260508101911 | 65 | 34 | 5.0 | 9.0 | 0.00 | 0.00 | 0.00 | 58 | 1017.5 |
| 20260508094911 | 64 | 63 | 5.0 | 12.0 | 0.00 | 0.00 | 0.00 | 59 | 1017.6 |
| 20260508093411 | 65 | 51 | 6.0 | 9.0 | 0.00 | 0.00 | 0.00 | 59 | 1018.0 |
| 20260508091911 | 64 | 67 | 3.0 | 13.0 | 0.00 | 0.00 | 0.00 | 59 | 1018.1 |
| 20260508090411 | 63 | 163 | 3.0 | 10.0 | 0.00 | 0.00 | 0.00 | 62 | 1018.1 |
| 20260508084911 | 63 | 76 | 3.0 | 5.0 | 0.00 | 0.00 | 0.00 | 62 | 1018.3 |
| 20260508083411 | 62 | 52 | 5.0 | 7.0 | 0.00 | 0.00 | 0.00 | 62 | 1018.1 |
| 20260508081910 | 61 | 43 | 4.0 | 8.0 | 0.00 | 0.00 | 0.00 | 64 | 1018.1 |
| 20260508080410 | 60 | 350 | 1.0 | 3.0 | 0.00 | 0.00 | 0.00 | 67 | 1018.1 |
| 20260508074910 | 59 | 360 | 1.0 | 3.0 | 0.00 | 0.00 | 0.00 | 68 | 1018.3 |
| 20260508073410 | 58 | 338 | 1.0 | 4.0 | 0.00 | 0.00 | 0.00 | 71 | 1017.9 |
| 20260508071910 | 57 | 24 | 2.0 | 3.0 | 0.00 | 0.00 | 0.00 | 71 | 1017.8 |
| 20260508070410 | 56 | 51 | 1.0 | 3.0 | 0.00 | 0.00 | 0.00 | 71 | 1017.9 |
| 20260508064910 | 55 | 333 | 1.0 | 2.0 | 0.00 | 0.00 | 0.00 | 74 | 1017.8 |
| 20260508063410 | 55 | 285 | 1.0 | 4.0 | 0.00 | 0.00 | 0.00 | 75 | 1017.8 |
| 20260508061910 | 54 | 334 | 1.0 | 2.0 | 0.00 | 0.00 | 0.00 | 77 | 1017.5 |
| 20260508060410 | 53 | 129 | 1.0 | 2.0 | 0.00 | 0.00 | 0.00 | 81 | 1017.5 |
| 20260508054909 | 51 | 135 | 1.0 | 2.0 | 0.00 | 0.00 | 0.00 | 82 | 1017.4 |
| 20260508053409 | 51 | 231 | 0.0 | 0.0 | 0.00 | 0.00 | 0.00 | 83 | 1017.3 |
| 20260508051909 | 49 | 231 | 2.0 | 2.0 | 0.00 | 0.00 | 0.00 | 85 | 1017.3 |
| 20260508050414 | 48 | 209 | 0.0 | 1.0 | 0.00 | 0.00 | 0.00 | 87 | 1017.2 |
| 20260508044914 | 47 | 237 | 1.0 | 4.0 | 0.00 | 0.00 | 0.00 | 89 | 1017.2 |
| 20260508043414 | 47 | 217 | 2.0 | 3.0 | 0.00 | 0.00 | 0.00 | 88 | 1017.0 |
| 20260508041914 | 46 | 219 | 3.0 | 4.0 | 0.00 | 0.00 | 0.00 | 89 | 1016.9 |
| 20260508040414 | 45 | 176 | 0.0 | 1.0 | 0.00 | 0.00 | 0.00 | 91 | 1016.9 |
| 20260508034913 | 45 | 175 | 1.0 | 2.0 | 0.00 | 0.00 | 0.00 | 89 | 1016.8 |
| 20260508033413 | 45 | 173 | 1.0 | 2.0 | 0.00 | 0.00 | 0.00 | 90 | 1016.8 |
| 20260508031913 | 45 | 173 | 0.0 | 0.0 | 0.00 | 0.00 | 0.00 | 90 | 1016.7 |
| 20260508030413 | 46 | 173 | 0.0 | 0.0 | 0.00 | 0.00 | 0.00 | 89 | 1016.7 |